Weather History for Renton, WA

Change the Weather History Date:

Thursday, January 9, 2014

  Actual Average Record
Temperature  
Mean Temperature 45 °F -  
Max Temperature 48 °F 45 °F - (-1)
Min Temperature 42 °F 36 °F - (-1)
Degree Days  
Heating Degree Days 20    
Moisture  
Dew Point 41 °F    
Average Humidity 85    
Maximum Humidity 100    
Minimum Humidity 76    
Precipitation  
Precipitation 0.12 in - - ()
Sea Level Pressure  
Sea Level Pressure 29.88 in    
Wind  
Wind Speed 8 mph (SSE)    
Max Wind Speed 16 mph    
Max Gust Speed 32 mph    
Visibility 7 miles    
Events Rain    
Averages and records for this station are not official NWS values.
T = Trace of Precipitation, MM = Missing Value Source: NWS Daily Summary

Daily Weather History Graph

Daily Weather History Graph

Search for Another Location

Airport:

Trip Planner

Search our weather history database for the weather conditions in past years. The results will help you decide how hot, cold, wet, or windy it might be!

Date:

Astronomy

Jan. 09, 2014 Rise Set
Actual Time 7:55 AM PST 4:37 PM PST
Civil Twilight 7:19 AM PST 5:12 PM PST
Nautical Twilight 6:41 AM PST 5:51 PM PST
Astronomical Twilight 6:04 AM PST 6:28 PM PST
Moon 12:16 PM PST (1/9) 1:57 AM PST (1/9)
Length of Visible Light 9h 52m
Length of Day
8h 42m
Waxing Gibbous, 67% of the Moon is Illuminated
Jan 9
Waxing Gibbous
Jan 15
Full
Jan 23
Last Quarter
Jan 30
New
Feb 6
First Quarter

Hourly Weather History & Observations

Time (PST) Temp. Windchill Dew Point Humidity Pressure Visibility Wind Dir Wind Speed Gust Speed Precip Events Conditions
12:53 AM 45.0 °F 40.1 °F 39.0 °F 80% 29.90 in 10.0 mi South 9.2 mph - N/A   Partly Cloudy
1:53 AM 44.1 °F 39.5 °F 37.9 °F 79% 29.93 in 10.0 mi SE 8.1 mph - N/A   Mostly Cloudy
2:53 AM 44.1 °F 40.8 °F 37.9 °F 79% 29.95 in 10.0 mi SSE 5.8 mph - N/A   Mostly Cloudy
3:41 AM 44.6 °F 41.4 °F 37.4 °F 76% 29.95 in 10.0 mi SSE 5.8 mph - N/A   Overcast
3:53 AM 45.0 °F 42.6 °F 37.9 °F 76% 29.98 in 10.0 mi Variable 4.6 mph - N/A   Mostly Cloudy
4:53 AM 43.0 °F 40.3 °F 37.9 °F 82% 29.98 in 10.0 mi SE 4.6 mph - N/A   Overcast
5:53 AM 43.0 °F 37.2 °F 37.9 °F 82% 30.00 in 10.0 mi SSE 10.4 mph - N/A   Overcast
6:21 AM 42.8 °F 37.5 °F 37.4 °F 81% 29.99 in 10.0 mi SSE 9.2 mph - N/A   Partly Cloudy
6:53 AM 43.0 °F 38.8 °F 37.9 °F 82% 30.01 in 10.0 mi SE 6.9 mph - N/A   Clear
7:34 AM 42.8 °F 39.3 °F 37.4 °F 81% 29.99 in 10.0 mi ESE 5.8 mph - N/A   Mostly Cloudy
7:53 AM 43.0 °F 39.5 °F 37.9 °F 82% 30.01 in 10.0 mi SE 5.8 mph - N/A   Mostly Cloudy
8:35 AM 44.6 °F 40.7 °F 37.4 °F 76% 29.99 in 10.0 mi SSE 6.9 mph - N/A   Scattered Clouds
8:53 AM 44.1 °F 40.8 °F 39.0 °F 82% 30.02 in 10.0 mi SSE 5.8 mph - N/A   Scattered Clouds
9:09 AM 44.6 °F 41.4 °F 39.2 °F 81% 30.01 in 10.0 mi SSE 5.8 mph - N/A   Mostly Cloudy
9:53 AM 44.1 °F 41.5 °F 39.0 °F 82% 30.01 in 10.0 mi SSE 4.6 mph - 0.01 in   Overcast
10:44 AM 44.6 °F 40.7 °F 37.4 °F 76% 30.00 in 10.0 mi SSE 6.9 mph - N/A   Overcast
10:53 AM 45.0 °F 42.6 °F 37.9 °F 76% 30.01 in 10.0 mi SSE 4.6 mph - N/A   Overcast
11:53 AM 45.0 °F 42.6 °F 37.9 °F 76% 29.98 in 5.0 mi SE 4.6 mph - 0.00 in Rain Light Rain
12:53 PM 45.0 °F 41.2 °F 39.9 °F 82% 29.93 in 6.0 mi SSE 6.9 mph - 0.03 in Rain Light Rain
1:53 PM 45.0 °F 41.8 °F 41.0 °F 86% 29.87 in 6.0 mi SE 5.8 mph - 0.00 in Rain Light Rain
3:13 PM 44.6 °F 40.7 °F 42.8 °F 93% 29.81 in 2.5 mi SSE 6.9 mph - 0.00 in Rain Light Rain
3:53 PM 44.1 °F 40.8 °F 42.1 °F 93% 29.81 in 2.0 mi SE 5.8 mph - 0.01 in Rain Light Rain
4:03 PM 44.6 °F 42.2 °F 42.8 °F 93% 29.79 in 1.8 mi ESE 4.6 mph - 0.01 in Rain Light Rain
4:51 PM 44.6 °F 41.4 °F 42.8 °F 93% 29.77 in 2.0 mi ESE 5.8 mph - 0.03 in Rain Light Rain
4:53 PM 44.1 °F 40.1 °F 43.0 °F 96% 29.79 in 2.0 mi ESE 6.9 mph - 0.03 in Rain Light Rain
5:53 PM 44.1 °F 40.8 °F 43.0 °F 96% 29.76 in 3.0 mi SE 5.8 mph - 0.03 in Rain Light Rain
6:03 PM 44.6 °F 40.7 °F 44.6 °F 100% 29.74 in 2.5 mi SE 6.9 mph - 0.00 in Rain Light Rain
6:18 PM 46.4 °F 41.9 °F 44.6 °F 93% 29.75 in 2.5 mi SSE 9.2 mph - 0.00 in Rain Light Rain
6:30 PM 46.4 °F 42.9 °F 44.6 °F 93% 29.75 in 2.5 mi SSE 6.9 mph - 0.00 in Rain Light Rain
6:53 PM 46.9 °F - 45.0 °F 93% 29.76 in 2.5 mi SSE 12.7 mph 17.3 mph 0.00 in   Overcast
6:57 PM 46.4 °F 41.9 °F 44.6 °F 93% 29.75 in 3.0 mi SSE 9.2 mph 17.3 mph N/A   Overcast
7:08 PM 46.4 °F 41.1 °F 44.6 °F 93% 29.74 in 3.0 mi SSE 11.5 mph 17.3 mph N/A   Overcast
7:33 PM 48.2 °F - 44.6 °F 87% 29.76 in 10.0 mi South 13.8 mph 19.6 mph N/A   Overcast
7:53 PM 48.9 °F - 45.0 °F 86% 29.76 in 10.0 mi South 13.8 mph 23.0 mph N/A   Overcast
8:53 PM 48.9 °F - 44.1 °F 83% 29.79 in 10.0 mi South 13.8 mph 21.9 mph N/A   Overcast
9:53 PM 48.0 °F - 44.1 °F 86% 29.81 in 10.0 mi South 16.1 mph 29.9 mph 0.01 in   Overcast
10:53 PM 48.0 °F - 43.0 °F 83% 29.84 in 10.0 mi South 15.0 mph 25.3 mph N/A   Mostly Cloudy
11:05 PM 48.2 °F - 42.8 °F 82% 29.83 in 10.0 mi South 15.0 mph 27.6 mph N/A   Mostly Cloudy
11:22 PM 48.2 °F - 42.8 °F 82% 29.84 in 10.0 mi South 13.8 mph 27.6 mph N/A   Mostly Cloudy
11:53 PM 48.0 °F - 43.0 °F 83% 29.86 in 10.0 mi South 16.1 mph 32.2 mph N/A   Mostly Cloudy